Location: East Fork Observatory
(32.9757°N, 94.4485°W)
Time: 04:36:54
(UTC-05:00)

N. Korean satellite - Visible Passes

Search period start: 19 March 2019 00:00
Search period end: 29 March 2019 00:00
Orbit: 455 x 511 km, 97.2° (Epoch: 18 March)

Date Brightness Start Highest point End Pass type
(mag) Time Alt. Az. Time Alt. Az. Time Alt. Az.
20 Mar 9.1 06:51:16 10° NE 06:54:20 27° E 06:57:27 10° SSE visible
21 Mar 10.1 06:27:45 10° ENE 06:29:26 13° E 06:31:07 10° ESE visible
24 Mar 9.4 06:45:33 10° NE 06:48:29 23° E 06:51:26 10° SSE visible
25 Mar 10.3 06:22:33 10° ENE 06:23:32 11° E 06:24:32 10° ESE visible
28 Mar 9.7 06:39:50 10° NE 06:42:33 20° E 06:45:18 10° SE visible
